This is the latest recevied weather packets stored in our database for station/object IT9FDP-13. If no packets are shown the sender has not sent any weather packets the latest 10 day(s).
| Time | Temp. | Humidity | Pressure | Rain* | Wind** | Luminosity | Snow |
|---|---|---|---|---|---|---|---|
| 1777756817 | 15.56° C | 58% | 1020.9 hPa | 0 mm | - | - | - |
| 1777754719 | 16.11° C | 54% | 1020.9 hPa | 0 mm | - | - | - |
| 1777754417 | 16.11° C | 54% | 1020.9 hPa | 0 mm | - | - | - |
| 1777753243 | 16.11° C | 52% | 1021 hPa | 0 mm | - | - | - |
| 1777752327 | 16.11° C | 51% | 1020.7 hPa | 0 mm | - | - | - |
| 1777752019 | 16.11° C | 51% | 1020.7 hPa | 0 mm | - | - | - |
| 1777751419 | 16.11° C | 51% | 1020.6 hPa | 0 mm | - | - | - |
| 1777750548 | 16.67° C | 50% | 1020.6 hPa | 0 mm | - | - | - |
| 1777750229 | 16.67° C | 50% | 1020.6 hPa | 0 mm | - | - | - |
| 1777747246 | 16.67° C | 47% | 1020.1 hPa | 0 mm | - | - | - |
| 1777746922 | 16.67° C | 47% | 1020.1 hPa | 0 mm | - | - | - |
| 1777746643 | 16.67° C | 46% | 1020 hPa | 0 mm | - | - | - |
| 1777744523 | 17.22° C | 46% | 1019.6 hPa | 0 mm | - | - | - |
| 1777743664 | 17.22° C | 46% | 1019.4 hPa | 0 mm | - | - | - |
| 1777743360 | 17.22° C | 45% | 1019.5 hPa | 0 mm | - | - | - |
| 1777741820 | 17.78° C | 44% | 1019.3 hPa | 0 mm | - | - | - |
| 1777737017 | 18.33° C | 41% | 1018.8 hPa | 0 mm | - | - | - |
| 1777736717 | 18.89° C | 40% | 1018.9 hPa | 0 mm | - | - | - |
| 1777734921 | 19.44° C | 40% | 1018.9 hPa | 0 mm | - | - | - |
| 1777734037 | 19.44° C | 38% | 1018.9 hPa | 0 mm | - | - | - |
| 1777733418 | 19.44° C | 37% | 1019 hPa | 0 mm | - | - | - |
| 1777733124 | 19.44° C | 37% | 1018.8 hPa | 0 mm | - | - | - |
| 1777732818 | 19.44° C | 36% | 1018.8 hPa | 0 mm | - | - | - |
| 1777730124 | 20° C | 35% | 1019.4 hPa | 0 mm | - | - | - |
| 1777729225 | 19.44° C | 35% | 1019.5 hPa | 0 mm | - | - | - |
* Rain latest hour (hover to see other rain measurements)
** Current wind speed in m/s (hover to see current wind gust speed)